RYR84HB LIPH-LOWW

Flight info

Callsign RYR84HB
Flight time 0h 46m
Altitude 19000
Route INBUT N503 LAREN Z122 BASOG/N0453F330 DCT BARPI DCT LAPNA LAPNA2W
Aircraft B738/M-SDE2E3FGHIRWXY/LB1

Departure

Time 2026-04-20 12:40
Airport Treviso Airport (LIPH)

Arrival

Time 2026-04-20 13:26
Airport Vienna International Airport (LOWW)
Time Latitude Longitude Altitude Speed Heading
2026-04-20 12:39 45.64709 12.18872 61 ft 126 kts 69°
2026-04-20 12:39 45.65094 12.20351 185 ft 183 kts 66°
2026-04-20 12:40 45.65659 12.22033 1088 ft 194 kts 69°
2026-04-20 12:40 45.65872 12.23941 2067 ft 197 kts 96°
2026-04-20 12:40 45.65330 12.25724 2976 ft 202 kts 132°
2026-04-20 12:40 45.64214 12.27016 3657 ft 216 kts 155°
2026-04-20 12:41 45.62704 12.27763 3939 ft 245 kts 165°
2026-04-20 12:41 45.60979 12.28497 4454 ft 267 kts 162°
2026-04-20 12:41 45.59434 12.29997 5403 ft 276 kts 128°
2026-04-20 12:41 45.58709 12.32533 6411 ft 281 kts 97°
2026-04-20 12:42 45.58625 12.35358 7281 ft 289 kts 90°
2026-04-20 12:42 45.58641 12.38232 8142 ft 296 kts 89°
2026-04-20 12:42 45.58679 12.41205 9061 ft 302 kts 88°
2026-04-20 12:42 45.58716 12.44240 9963 ft 309 kts 88°
2026-04-20 12:43 45.58748 12.47373 10541 ft 327 kts 89°
2026-04-20 12:43 45.58775 12.50765 10758 ft 355 kts 89°
2026-04-20 12:43 45.58796 12.54407 11143 ft 375 kts 89°
2026-04-20 12:43 45.58810 12.58184 11862 ft 383 kts 89°
2026-04-20 12:44 45.58820 12.62013 12753 ft 387 kts 89°
2026-04-20 12:44 45.58826 12.65882 13584 ft 392 kts 89°
2026-04-20 12:44 45.58830 12.69816 14291 ft 399 kts 89°
2026-04-20 12:44 45.58833 12.73812 14974 ft 406 kts 89°
2026-04-20 12:45 45.58834 12.77877 15666 ft 412 kts 88°
2026-04-20 12:45 45.58834 12.81995 16348 ft 418 kts 88°
2026-04-20 12:45 45.58832 12.86178 17028 ft 424 kts 88°
2026-04-20 12:45 45.58829 12.90364 17683 ft 431 kts 88°
2026-04-20 12:46 45.58824 12.94670 18340 ft 437 kts 88°
2026-04-20 12:46 45.58817 12.99029 18934 ft 441 kts 88°
2026-04-20 12:46 45.58808 13.03431 19575 ft 445 kts 88°
2026-04-20 12:46 45.58802 13.06416 19995 ft 447 kts 88°
2026-04-20 12:47 45.58756 13.21563 21930 ft 463 kts 87°
2026-04-20 12:47 45.58738 13.26186 22491 ft 467 kts 87°
2026-04-20 12:48 45.58718 13.30839 23049 ft 471 kts 87°
2026-04-20 12:48 45.58696 13.35538 23568 ft 476 kts 87°
2026-04-20 12:48 45.58673 13.40306 23973 ft 481 kts 87°
2026-04-20 12:48 45.58654 13.45108 24466 ft 483 kts 85°
2026-04-20 12:49 45.59001 13.49790 24918 ft 479 kts 72°
2026-04-20 12:49 45.59976 13.54300 25392 ft 473 kts 62°
2026-04-20 12:49 45.61457 13.58463 25833 ft 467 kts 50°
2026-04-20 12:49 45.63310 13.62257 26262 ft 467 kts 47°
2026-04-20 12:50 45.65209 13.66030 26674 ft 470 kts 47°
2026-04-20 12:50 45.67126 13.69834 27078 ft 473 kts 47°
2026-04-20 12:50 45.69041 13.73667 27471 ft 476 kts 47°
2026-04-20 12:50 45.70959 13.77540 27888 ft 479 kts 48°
2026-04-20 12:51 45.72881 13.81455 28277 ft 482 kts 48°
2026-04-20 12:51 45.74806 13.85397 28624 ft 486 kts 48°
2026-04-20 12:51 45.76747 13.89388 28947 ft 490 kts 48°
2026-04-20 12:51 45.78695 13.93403 29335 ft 492 kts 48°
2026-04-20 12:52 45.80647 13.97437 29766 ft 493 kts 48°
2026-04-20 12:52 45.82535 14.01346 30281 ft 491 kts 48°
2026-04-20 12:52 45.84472 14.05363 30773 ft 489 kts 48°
2026-04-20 12:52 45.86407 14.09379 31154 ft 489 kts 48°
2026-04-20 12:53 45.88343 14.13394 31433 ft 491 kts 48°
2026-04-20 12:53 45.90281 14.17416 31858 ft 490 kts 48°
2026-04-20 12:53 45.92210 14.21429 32338 ft 487 kts 48°
2026-04-20 12:53 45.94132 14.25436 32775 ft 486 kts 48°
2026-04-20 12:54 45.96054 14.29442 32989 ft 489 kts 48°
2026-04-20 12:54 45.99935 14.37544 32980 ft 492 kts 49°
2026-04-20 12:55 46.03761 14.45578 32986 ft 484 kts 48°
2026-04-20 12:55 46.07575 14.53596 32998 ft 486 kts 47°
2026-04-20 12:56 46.11397 14.61649 32989 ft 487 kts 48°
2026-04-20 12:56 46.15191 14.69670 32996 ft 488 kts 48°
2026-04-20 12:57 46.19014 14.77777 32983 ft 488 kts 48°
2026-04-20 12:57 46.22182 14.84514 33016 ft 488 kts 47°
2026-04-20 12:58 46.25990 14.92636 32990 ft 485 kts 47°
2026-04-20 12:58 46.29721 15.00608 33005 ft 485 kts 47°
2026-04-20 12:59 46.33495 15.08698 33006 ft 486 kts 47°
2026-04-20 12:59 46.37279 15.16835 33062 ft 488 kts 47°
2026-04-20 13:00 46.41080 15.25036 33003 ft 492 kts 47°
2026-04-20 13:00 46.44867 15.33236 32876 ft 494 kts 47°
2026-04-20 13:00 46.46779 15.37377 32604 ft 493 kts 47°
2026-04-20 13:01 46.48683 15.41510 32350 ft 492 kts 47°
2026-04-20 13:01 46.50585 15.45643 32113 ft 493 kts 47°
2026-04-20 13:01 46.52560 15.49693 31837 ft 485 kts 39°
2026-04-20 13:01 46.55032 15.52839 31627 ft 461 kts 21°
2026-04-20 13:02 46.57836 15.54892 31388 ft 445 kts 11°
2026-04-20 13:02 46.60700 15.56602 31159 ft 446 kts 11°
2026-04-20 13:02 46.63572 15.58332 30902 ft 446 kts 11°
2026-04-20 13:02 46.66454 15.60034 30661 ft 448 kts 11°
2026-04-20 13:03 46.69351 15.61748 30416 ft 449 kts 11°
2026-04-20 13:03 46.72251 15.63480 30172 ft 451 kts 11°
2026-04-20 13:03 46.75159 15.65236 29938 ft 453 kts 11°
2026-04-20 13:03 46.78036 15.66989 29645 ft 454 kts 11°
2026-04-20 13:04 46.80954 15.68779 29345 ft 456 kts 12°
2026-04-20 13:04 46.83876 15.70577 29065 ft 456 kts 12°
2026-04-20 13:04 46.86806 15.72386 28777 ft 457 kts 12°
2026-04-20 13:04 46.89739 15.74198 28506 ft 458 kts 12°
2026-04-20 13:05 46.92657 15.76005 27935 ft 454 kts 12°
2026-04-20 13:05 46.95549 15.77800 27282 ft 448 kts 13°
2026-04-20 13:05 46.98399 15.79572 26648 ft 443 kts 13°
2026-04-20 13:05 47.01211 15.81317 26036 ft 438 kts 14°
2026-04-20 13:06 47.04010 15.83053 25428 ft 434 kts 14°
2026-04-20 13:06 47.06783 15.84774 24826 ft 431 kts 15°
2026-04-20 13:06 47.09534 15.86482 24229 ft 428 kts 15°
2026-04-20 13:06 47.12264 15.88180 23623 ft 425 kts 15°
2026-04-20 13:07 47.14983 15.89873 22909 ft 423 kts 15°
2026-04-20 13:07 47.17686 15.91560 22267 ft 420 kts 15°
2026-04-20 13:07 47.20366 15.93234 21647 ft 416 kts 16°
2026-04-20 13:07 47.23021 15.94895 21077 ft 412 kts 16°
2026-04-20 13:08 47.25611 15.96516 20482 ft 408 kts 16°
2026-04-20 13:08 47.28250 15.98170 19895 ft 405 kts 17°
2026-04-20 13:08 47.30800 15.99768 19333 ft 402 kts 17°
2026-04-20 13:08 47.33299 16.01336 18807 ft 400 kts 17°
2026-04-20 13:09 47.35859 16.02944 18223 ft 399 kts 17°
2026-04-20 13:09 47.38415 16.04468 17747 ft 392 kts 14°
2026-04-20 13:09 47.40962 16.05774 17426 ft 388 kts 12°
2026-04-20 13:09 47.43556 16.07016 17090 ft 395 kts 12°
2026-04-20 13:10 47.46179 16.08259 16733 ft 396 kts 11°
2026-04-20 13:10 47.48790 16.09510 16449 ft 393 kts 12°
2026-04-20 13:10 47.51379 16.10778 16136 ft 390 kts 12°
2026-04-20 13:10 47.53954 16.12053 15802 ft 389 kts 13°
2026-04-20 13:11 47.56520 16.13329 15465 ft 388 kts 13°
2026-04-20 13:11 47.59071 16.14600 15137 ft 385 kts 13°
2026-04-20 13:11 47.61599 16.15887 14838 ft 384 kts 13°
2026-04-20 13:11 47.64128 16.17149 14522 ft 383 kts 13°
2026-04-20 13:12 47.66624 16.18382 14210 ft 382 kts 13°
2026-04-20 13:12 47.69138 16.19630 13900 ft 379 kts 13°
2026-04-20 13:12 47.71636 16.20874 13556 ft 377 kts 13°
2026-04-20 13:12 47.74113 16.22114 13231 ft 374 kts 13°
2026-04-20 13:13 47.76529 16.23565 12893 ft 379 kts 26°
2026-04-20 13:13 47.78531 16.26144 12633 ft 383 kts 43°
2026-04-20 13:13 47.80327 16.29071 12295 ft 383 kts 44°
2026-04-20 13:13 47.82111 16.32005 11974 ft 382 kts 44°
2026-04-20 13:14 47.83904 16.34911 11652 ft 378 kts 44°
2026-04-20 13:14 47.85672 16.37749 11337 ft 369 kts 44°
2026-04-20 13:14 47.87396 16.40522 11033 ft 360 kts 46°
2026-04-20 13:14 47.88694 16.43677 10708 ft 359 kts 69°
2026-04-20 13:15 47.89042 16.47272 10421 ft 355 kts 94°
2026-04-20 13:15 47.88453 16.50789 10111 ft 347 kts 116°
2026-04-20 13:15 47.87117 16.53701 9850 ft 334 kts 138°
2026-04-20 13:15 47.85365 16.55775 9751 ft 310 kts 154°
2026-04-20 13:16 47.83443 16.56956 9527 ft 290 kts 167°
2026-04-20 13:16 47.81525 16.57767 9157 ft 282 kts 169°
2026-04-20 13:16 47.79681 16.58486 8981 ft 268 kts 169°
2026-04-20 13:16 47.77910 16.59231 8753 ft 259 kts 163°
2026-04-20 13:17 47.76374 16.60473 8663 ft 245 kts 146°
2026-04-20 13:17 47.75197 16.62270 8295 ft 243 kts 127°
2026-04-20 13:17 47.74440 16.64501 7780 ft 243 kts 107°
2026-04-20 13:17 47.74176 16.66959 7237 ft 240 kts 87°
2026-04-20 13:18 47.74386 16.69383 6688 ft 235 kts 71°
2026-04-20 13:18 47.75169 16.71388 6192 ft 220 kts 32°
2026-04-20 13:18 47.76528 16.72022 5999 ft 203 kts 350°
2026-04-20 13:18 47.77940 16.71751 5984 ft 205 kts 348°
2026-04-20 13:19 47.79348 16.71435 5944 ft 203 kts 345°
2026-04-20 13:19 47.80700 16.71002 5938 ft 199 kts 342°
2026-04-20 13:19 47.82057 16.70482 5948 ft 199 kts 341°
2026-04-20 13:19 47.83404 16.69931 5777 ft 203 kts 341°
2026-04-20 13:20 47.84746 16.69368 5527 ft 203 kts 340°
2026-04-20 13:20 47.86084 16.68803 5264 ft 196 kts 340°
2026-04-20 13:20 47.87364 16.68262 4999 ft 187 kts 340°
2026-04-20 13:20 47.88585 16.67744 4758 ft 179 kts 340°
2026-04-20 13:21 47.89761 16.67244 4527 ft 173 kts 340°
2026-04-20 13:21 47.90902 16.66760 4286 ft 168 kts 339°
2026-04-20 13:21 47.92015 16.66286 4053 ft 166 kts 339°
2026-04-20 13:21 47.93124 16.65813 3841 ft 167 kts 341°
2026-04-20 13:22 47.94236 16.65340 3625 ft 165 kts 341°
2026-04-20 13:22 47.95328 16.64879 3402 ft 161 kts 341°
2026-04-20 13:22 47.96402 16.64424 3193 ft 161 kts 341°
2026-04-20 13:22 47.97458 16.63975 3005 ft 149 kts 340°
2026-04-20 13:23 47.98401 16.63577 2808 ft 131 kts 339°
2026-04-20 13:23 47.99262 16.63210 2603 ft 127 kts 340°
2026-04-20 13:23 48.00101 16.62854 2445 ft 127 kts 340°
2026-04-20 13:23 48.00945 16.62496 2277 ft 125 kts 340°
2026-04-20 13:24 48.01789 16.62136 2113 ft 126 kts 340°
2026-04-20 13:24 48.02641 16.61774 1938 ft 127 kts 339°
2026-04-20 13:24 48.03484 16.61417 1758 ft 126 kts 339°
2026-04-20 13:24 48.04328 16.61057 1583 ft 127 kts 340°
2026-04-20 13:25 48.05218 16.60677 1408 ft 135 kts 341°
2026-04-20 13:25 48.06089 16.60293 1223 ft 126 kts 343°
2026-04-20 13:25 48.06949 16.59920 1024 ft 131 kts 344°
2026-04-20 13:25 48.07840 16.59539 861 ft 137 kts 346°
2026-04-20 13:26 48.08777 16.59155 678 ft 139 kts 347°
2026-04-20 13:26 48.09681 16.58784 626 ft 128 kts 346°
2026-04-20 13:26 48.10340 16.58508 614 ft 73 kts 343°
2026-04-20 13:26 48.10718 16.58295 620 ft 47 kts 322°
2026-04-20 13:27 48.10880 16.58050 608 ft 30 kts 315°
2026-04-20 13:27 48.11028 16.57820 618 ft 27 kts 308°
2026-04-20 13:27 48.11110 16.57605 620 ft 20 kts 322°
2026-04-20 13:27 48.11224 16.57517 616 ft 23 kts 296°
2026-04-20 13:28 48.11301 16.57274 623 ft 29 kts 296°
2026-04-20 13:28 48.11378 16.57041 623 ft 23 kts 295°
2026-04-20 13:28 48.11465 16.56879 620 ft 24 kts 353°
2026-04-20 13:28 48.11602 16.56847 616 ft 17 kts 294°
2026-04-20 13:29 48.11588 16.56750 612 ft 9 kts 205°
2026-04-20 13:29 48.11562 16.56732 613 ft 0 kts 206°